Location: Colorado Springs
(38.8340°N, 104.8210°W)
Time: 18:34:29
(UTC-07:00)

Vanguard 1 - All Passes

Search period start: 20 February 2018 00:00
Search period end: 02 March 2018 00:00
Orbit: 650 x 3833 km, 34.2° (Epoch: 19 February)

Date Brightness Start Highest point End Pass type
(mag) Time Alt. Az. Time Alt. Az. Time Alt. Az.
20 Feb - 11:51:51 10° SSW 12:04:25 24° SSE 12:13:02 10° ESE daylight
20 Feb - 14:13:38 10° SW 14:27:02 46° SSE 14:34:31 10° E daylight
20 Feb - 16:38:34 10° WSW 16:48:13 62° S 16:53:46 10° E daylight
20 Feb - 19:02:26 10° W 19:08:06 36° SSW 19:12:18 10° SE visible
21 Feb - 12:11:14 10° SSW 12:25:41 30° SSE 12:34:53 10° E daylight
21 Feb - 14:34:39 10° WSW 14:48:09 54° SSE 14:55:29 10° E daylight
21 Feb - 16:59:57 10° W 17:09:11 61° S 17:14:33 10° ESE daylight
21 Feb - 19:23:50 10° W 19:28:48 27° SSW 19:32:40 10° SSE visible
22 Feb - 10:13:36 10° S 10:23:21 16° SE 10:31:15 10° ESE daylight
22 Feb - 12:31:13 10° SW 12:46:55 38° SSE 12:56:20 10° E daylight
22 Feb - 14:55:53 10° WSW 15:09:14 60° S 15:16:22 10° E daylight
22 Feb - 17:21:20 10° W 17:30:05 57° SSW 17:35:18 10° ESE daylight
22 Feb - 19:45:28 10° WSW 19:49:24 19° SSW 19:52:40 10° SSE visible
23 Feb - 10:31:04 10° S 10:44:40 22° SE 10:54:41 10° ESE daylight
23 Feb - 12:51:41 10° SW 13:08:08 45° SSE 13:17:33 10° E daylight
23 Feb - 15:17:16 10° WSW 15:30:19 65° S 15:37:14 10° E daylight
23 Feb - 17:42:45 10° W 17:50:56 49° SSW 17:55:58 10° ESE daylight
23 Feb - 20:07:49 10° WSW 20:09:55 12° SW 20:11:52 10° SSW visible
24 Feb - 10:49:52 10° SSW 11:05:55 29° SSE 11:16:57 10° E daylight
24 Feb - 13:12:31 10° SW 13:29:20 53° SSE 13:38:37 10° E daylight
24 Feb - 15:38:46 10° W 15:51:22 67° S 15:58:04 10° E daylight
24 Feb - 18:04:11 10° W 18:11:41 40° SSW 18:16:30 10° SE visible
25 Feb - 08:55:24 10° SSE 09:03:07 13° SE 09:09:58 10° ESE daylight
25 Feb - 11:09:26 10° SSW 11:27:10 36° SSE 11:38:41 10° E daylight
25 Feb - 13:33:38 10° WSW 13:50:31 60° SSE 13:59:35 10° E daylight
25 Feb - 16:00:19 10° W 16:12:23 66° S 16:18:52 10° ESE daylight
25 Feb - 18:25:42 10° W 18:32:20 31° SSW 18:36:50 10° SSE visible
26 Feb - 09:11:10 10° S 09:24:20 19° SE 09:35:05 10° ESE daylight
26 Feb - 11:29:33 10° SW 11:48:25 43° SSE 12:00:06 10° E daylight
26 Feb - 13:54:59 10° WSW 14:11:41 65° S 14:20:30 10° E daylight
26 Feb - 16:21:52 10° W 16:33:21 61° SSW 16:39:36 10° ESE daylight
26 Feb - 18:47:26 10° W 18:52:52 22° SW 18:56:51 10° SSE visible
27 Feb - 09:29:10 10° S 09:45:31 26° SE 09:58:04 10° E daylight
27 Feb - 11:50:07 10° SW 12:09:40 51° SSE 12:21:18 10° E daylight
27 Feb - 14:16:31 10° WSW 14:32:51 69° S 14:41:23 10° E daylight
27 Feb - 16:43:26 10° W 16:54:14 54° SSW 17:00:16 10° ESE daylight
27 Feb - 19:09:40 10° WSW 19:13:17 15° SW 19:16:14 10° S visible
28 Feb - 09:48:12 10° SSW 10:06:43 33° SE 10:20:13 10° E daylight
28 Feb - 12:11:01 10° SW 12:30:55 58° SSE 12:42:22 10° E daylight
28 Feb - 14:38:09 10° W 14:53:59 71° S 15:02:14 10° E daylight
28 Feb - 17:05:00 10° W 17:14:59 45° SSW 17:20:47 10° SE daylight
01 Mar - 07:53:03 10° SSE 08:03:42 15° SE 08:13:22 10° ESE daylight
01 Mar - 10:07:52 10° SSW 10:27:54 40° SSE 10:41:55 10° E daylight
01 Mar - 12:32:12 10° WSW 12:52:11 65° SSE 13:03:23 10° E daylight
01 Mar - 14:59:49 10° W 15:15:05 69° S 15:23:03 10° ESE daylight
01 Mar - 17:26:38 10° W 17:35:37 35° SSW 17:41:07 10° SSE daylight
